Tiempo cada hora Burgos

Hoy, 26 Octubre, Lunes

Tiempo Temperatura Precipitaciones Viento Presión Humedad
00:00 +2°C° 0 mm 5 mps 679 mmHg 88%
01:00 +2°C° 0 mm 5 mps 679 mmHg 89%
02:00 +2°C° 0 mm 5 mps 679 mmHg 90%
03:00 +2°C° 0 mm 5 mps 679 mmHg 90%
04:00 +2°C° 0 mm 5 mps 679 mmHg 90%
05:00 +1°C° 0 mm 5 mps 680 mmHg 89%
06:00 +1°C° 0 mm 5 mps 680 mmHg 89%
07:00 +2°C° 0 mm 5 mps 680 mmHg 85%
08:00 +3°C° 0 mm 5 mps 681 mmHg 81%
09:00 +3°C° 0 mm 5 mps 681 mmHg 77%
10:00 +5°C° 0 mm 5 mps 682 mmHg 70%
11:00 +7°C° 0 mm 5 mps 682 mmHg 63%
12:00 +8°C° 0 mm 5 mps 683 mmHg 54%
13:00 +9°C° 0 mm 5 mps 683 mmHg 54%
14:00 +9°C° 0 mm 5 mps 683 mmHg 53%
15:00 +9°C° 0 mm 6 mps 683 mmHg 53%
16:00 +4°C° 0 mm 3 mps 683 mmHg 76%
17:00 +5°C° 0 mm 3 mps 683 mmHg 73%
18:00 +7°C° 0 mm 3 mps 682 mmHg 69%
19:00 +5°C° 0 mm 3 mps 683 mmHg 73%
20:00 +4°C° 0 mm 3 mps 683 mmHg 76%
21:00 +4°C° 0 mm 3 mps 683 mmHg 80%
22:00 +3°C° 0 mm 3 mps 683 mmHg 83%
23:00 +3°C° 0 mm 3 mps 683 mmHg 86%

Mañana, 27 Octubre, Martes

Tiempo Temperatura Precipitaciones Viento Presión Humedad
00:00 +3°C° 0 mm 3 mps 683 mmHg 88%
01:00 +5°C° 0 mm 4 mps 682 mmHg 77%
02:00 +4°C° 0 mm 4 mps 682 mmHg 85%
03:00 +3°C° 0 mm 4 mps 682 mmHg 93%
04:00 +3°C° 0 mm 4 mps 682 mmHg 92%
05:00 +3°C° 0 mm 5 mps 682 mmHg 91%
06:00 +3°C° 0 mm 5 mps 682 mmHg 91%
07:00 +3°C° 0 mm 5 mps 682 mmHg 88%
08:00 +5°C° 0 mm 5 mps 682 mmHg 86%
09:00 +4°C° 0 mm 6 mps 683 mmHg 83%
10:00 +5°C° 0 mm 6 mps 683 mmHg 81%
11:00 +7°C° 0 mm 6 mps 683 mmHg 78%
12:00 +8°C° 0 mm 6 mps 683 mmHg 75%
13:00 +8°C° 0 mm 6 mps 682 mmHg 74%
14:00 +9°C° 0 mm 6 mps 682 mmHg 74%
15:00 +9°C° 0 mm 6 mps 682 mmHg 73%
16:00 +9°C° 0 mm 6 mps 682 mmHg 76%
17:00 +9°C° 0 mm 6 mps 682 mmHg 80%
18:00 +9°C° 0 mm 5 mps 682 mmHg 83%
19:00 +9°C° 0 mm 5 mps 683 mmHg 85%
20:00 +8°C° 0 mm 5 mps 683 mmHg 86%
21:00 +8°C° 0 mm 5 mps 683 mmHg 87%
22:00 +9°C° 0 mm 6 mps 682 mmHg 89%
23:00 +9°C° 0 mm 6 mps 682 mmHg 89%

Pasado mañana, 28 Octubre, Miércoles

Tiempo Temperatura Precipitaciones Viento Presión Humedad
00:00 +9°C° 0 mm 6 mps 682 mmHg 89%
01:00 +9°C° 0 mm 5 mps 682 mmHg 90%
02:00 +9°C° 0 mm 5 mps 682 mmHg 91%
03:00 +9°C° 0 mm 5 mps 682 mmHg 92%
04:00 +9°C° 0 mm 5 mps 682 mmHg 91%
05:00 +9°C° 0 mm 5 mps 682 mmHg 91%
06:00 +9°C° 0 mm 6 mps 682 mmHg 90%
07:00 +10°C° 0.1 mm 6 mps 683 mmHg 86%
08:00 +10°C° 0.1 mm 7 mps 683 mmHg 83%
09:00 +10°C° 0.1 mm 7 mps 683 mmHg 79%
10:00 +11°C° 0 mm 7 mps 684 mmHg 74%
11:00 +11°C° 0 mm 7 mps 684 mmHg 70%
12:00 +12°C° 0 mm 7 mps 684 mmHg 65%
13:00 +12°C° 0 mm 7 mps 684 mmHg 64%
14:00 +13°C° 0 mm 6 mps 684 mmHg 62%
15:00 +13°C° 0 mm 6 mps 684 mmHg 61%
16:00 +12°C° 0 mm 5 mps 684 mmHg 65%
17:00 +11°C° 0 mm 4 mps 684 mmHg 70%
18:00 +9°C° 0 mm 3 mps 684 mmHg 75%
19:00 +9°C° 0 mm 3 mps 684 mmHg 77%
20:00 +8°C° 0 mm 2 mps 685 mmHg 79%
21:00 +8°C° 0 mm 2 mps 685 mmHg 81%
22:00 +7°C° 0 mm 2 mps 685 mmHg 84%
23:00 +7°C° 0 mm 2 mps 685 mmHg 87%

29 Octubre, Jueves

Tiempo Temperatura Precipitaciones Viento Presión Humedad
00:00 +6°C° 0 mm 2 mps 685 mmHg 90%
01:00 +6°C° 0 mm 2 mps 685 mmHg 91%
02:00 +6°C° 0 mm 2 mps 685 mmHg 92%
03:00 +5°C° 0 mm 2 mps 685 mmHg 93%
04:00 +5°C° 0 mm 2 mps 685 mmHg 93%
05:00 +5°C° 0 mm 2 mps 685 mmHg 93%
06:00 +5°C° 0 mm 2 mps 685 mmHg 93%
07:00 +6°C° 0 mm 2 mps 685 mmHg 88%
08:00 +8°C° 0 mm 2 mps 686 mmHg 84%
09:00 +9°C° 0 mm 3 mps 686 mmHg 79%
10:00 +10°C° 0 mm 3 mps 687 mmHg 72%
11:00 +12°C° 0 mm 4 mps 687 mmHg 65%
12:00 +14°C° 0 mm 4 mps 687 mmHg 58%
13:00 +14°C° 0 mm 4 mps 687 mmHg 56%
14:00 +15°C° 0 mm 4 mps 687 mmHg 54%
15:00 +15°C° 0 mm 4 mps 686 mmHg 52%
16:00 +13°C° 0 mm 3 mps 686 mmHg 58%
17:00 +12°C° 0 mm 3 mps 686 mmHg 64%
18:00 +10°C° 0 mm 2 mps 685 mmHg 70%
19:00 +10°C° 0 mm 2 mps 686 mmHg 72%
20:00 +9°C° 0 mm 2 mps 686 mmHg 73%
21:00 +9°C° 0 mm 2 mps 686 mmHg 75%
22:00 +8°C° 0 mm 2 mps 686 mmHg 75%
23:00 +8°C° 0 mm 2 mps 686 mmHg 76%

30 Octubre, Viernes

Tiempo Temperatura Precipitaciones Viento Presión Humedad
00:00 +8°C° 0 mm 2 mps 685 mmHg 76%
01:00 +8°C° 0 mm 2 mps 685 mmHg 79%
02:00 +8°C° 0 mm 3 mps 685 mmHg 81%
03:00 +7°C° 0 mm 3 mps 685 mmHg 83%
04:00 +7°C° 0 mm 3 mps 684 mmHg 85%
05:00 +7°C° 0 mm 3 mps 684 mmHg 86%
06:00 +7°C° 0 mm 2 mps 684 mmHg 88%
07:00 +8°C° 0 mm 3 mps 685 mmHg 81%
08:00 +10°C° 0 mm 3 mps 685 mmHg 74%
09:00 +11°C° 0 mm 4 mps 685 mmHg 67%
10:00 +13°C° 0 mm 5 mps 685 mmHg 64%
11:00 +14°C° 0 mm 5 mps 685 mmHg 61%
12:00 +16°C° 0 mm 6 mps 685 mmHg 57%
13:00 +16°C° 0 mm 6 mps 685 mmHg 56%
14:00 +17°C° 0 mm 6 mps 685 mmHg 55%
15:00 +17°C° 0 mm 6 mps 684 mmHg 54%
16:00 +16°C° 0 mm 5 mps 684 mmHg 60%
17:00 +14°C° 0 mm 4 mps 683 mmHg 65%
18:00 +13°C° 0 mm 3 mps 683 mmHg 70%
19:00 +12°C° 0 mm 4 mps 683 mmHg 73%
20:00 +12°C° 0 mm 4 mps 683 mmHg 75%
21:00 +11°C° 0 mm 4 mps 683 mmHg 78%
22:00 +11°C° 0 mm 4 mps 683 mmHg 81%
23:00 +11°C° 0 mm 4 mps 683 mmHg 84%

31 Octubre, Sábado

Tiempo Temperatura Precipitaciones Viento Presión Humedad
00:00 +10°C° 0 mm 4 mps 683 mmHg 86%
01:00 +10°C° 0 mm 4 mps 683 mmHg 88%
02:00 +10°C° 0 mm 4 mps 683 mmHg 89%
03:00 +8°C° 0 mm 4 mps 683 mmHg 91%
04:00 +8°C° 0 mm 4 mps 683 mmHg 91%
05:00 +8°C° 0 mm 4 mps 683 mmHg 91%
06:00 +8°C° 0 mm 4 mps 683 mmHg 92%
Mostrar más

Necesitamos Su Consentimiento

Meteoprog y nuestros Proveedores de Servicios pueden almacenar y acceder a sus datos personales como cookies, identificadores de dispositivo u otras tecnologías similares de su dispositivo y procesar dichos datos para personalizar contenido y anuncios, además de ofrecer funciones de redes sociales y analizar el tráfico.

  • Almacenar y/o acceder a información en su dispositivo

    Se puede almacenar o acceder a cookies, identificadores de dispositivo u otra información de su dispositivo para los fines anteriormente indicados.

  • Anuncios y contenido personalizados, medición de anuncios y contenido, percepciones del público, y desarrollo de productos

    Los anuncios y el contenido pueden personalizarse en base a su perfil. Se pueden añadir más datos para personalizar mejor los anuncios y contenidos. Se puede medir el rendimiento de los anuncios y contenidos. Se puede obtener la percepción sobre el público que ha visto los anuncios y contenidos. Dichos datos pueden usarse para desarrollar o mejorar la experiencia del usuario, sistemas y software.

Al hacer clic en ‘Estoy De Acuerdo’ usted permitirá el uso de las cookies, identificadores de dispositivo, balizas web u otras tecnologías similares indicadas. Su configuración puede cambiarse desde el navegador de su dispositivo.

Para ciertos fines, los intereses legítimos pueden ser considerados por encima del consentimiento. Puede leer más sobre ello en nuestra Política de Privacidad y Cookies.